| time (UTC) | temp C | wind direction | speed KPH | gust KPH | rain 1hr cm | rain 24hr cm | rain mn cm | humidity % | barometer mb |
| 20260507104548 | 21 | 240 | 0.0 | 9.7 | 0.00 | 0.61 | 0.00 | 57 | 1009.9 |
| 20260507103038 | 21 | 309 | 0.0 | 3.2 | 0.00 | 0.61 | 0.00 | 54 | 1010.1 |
| 20260507101536 | 20 | 238 | 1.6 | 6.4 | 0.00 | 0.61 | 0.00 | 60 | 1010.3 |
| 20260507100037 | 20 | 234 | 0.0 | 6.4 | 0.00 | 0.61 | 0.00 | 59 | 1010.2 |
| 20260507094533 | 20 | 227 | 0.0 | 1.6 | 0.00 | 0.61 | 0.00 | 64 | 1010.4 |
| 20260507093037 | 19 | 277 | 0.0 | 1.6 | 0.00 | 0.61 | 0.00 | 66 | 1010.4 |
| 20260507091538 | 18 | 228 | 0.0 | 3.2 | 0.00 | 0.61 | 0.00 | 63 | 1010.3 |
| 20260507090030 | 19 | 225 | 0.0 | 1.6 | 0.00 | 0.61 | 0.00 | 64 | 1010.3 |
| 20260507084532 | 19 | 283 | 0.0 | 0.0 | 0.00 | 0.61 | 0.00 | 66 | 1010.3 |
| 20260507083029 | 19 | 253 | 0.0 | 0.0 | 0.00 | 0.61 | 0.00 | 63 | 1010.2 |
| 20260507081526 | 18 | 207 | 0.0 | 0.0 | 0.00 | 0.61 | 0.00 | 70 | 1010.2 |
| 20260507080024 | 18 | 175 | 0.0 | 0.0 | 0.00 | 0.61 | 0.00 | 71 | 1010.2 |
| 20260507074524 | 18 | 178 | 0.0 | 0.0 | 0.00 | 0.61 | 0.00 | 69 | 1010.1 |
| 20260507073020 | 17 | 249 | 0.0 | 0.0 | 0.00 | 0.61 | 0.00 | 71 | 1010.0 |
| 20260507071520 | 17 | 242 | 0.0 | 0.0 | 0.00 | 0.61 | 0.00 | 70 | 1010.0 |
| 20260507070014 | 16 | 254 | 0.0 | 0.0 | 0.00 | 0.64 | 0.00 | 73 | 1009.9 |
| 20260507064513 | 16 | 321 | 0.0 | 0.0 | 0.00 | 0.64 | 0.00 | 74 | 1009.9 |
| 20260507063025 | 16 | 319 | 0.0 | 0.0 | 0.00 | 0.64 | 0.00 | 75 | 1009.8 |
| 20260507061511 | 16 | 307 | 0.0 | 0.0 | 0.00 | 0.64 | 0.00 | 75 | 1009.8 |
| 20260507060012 | 16 | 313 | 0.0 | 0.0 | 0.00 | 0.81 | 0.00 | 78 | 1009.8 |
| 20260507054503 | 15 | 312 | 0.0 | 0.0 | 0.00 | 0.81 | 0.00 | 82 | 1009.7 |
| 20260507053101 | 13 | 312 | 0.0 | 0.0 | 0.00 | 0.81 | 0.00 | 86 | 1009.6 |
| 20260507051602 | 13 | 311 | 0.0 | 0.0 | 0.00 | 0.81 | 0.00 | 88 | 1009.3 |
| 20260507050101 | 12 | 311 | 0.0 | 0.0 | 0.00 | 0.84 | 0.00 | 90 | 1009.3 |
| 20260507044555 | 12 | 311 | 0.0 | 0.0 | 0.00 | 0.84 | 0.00 | 90 | 1009.0 |
| 20260507043054 | 12 | 312 | 0.0 | 0.0 | 0.00 | 0.84 | 0.00 | 91 | 1008.9 |
| 20260507041552 | 11 | 331 | 0.0 | 0.0 | 0.00 | 0.84 | 0.00 | 90 | 1008.6 |
| 20260507040049 | 12 | 333 | 0.0 | 0.0 | 0.00 | 0.84 | 0.00 | 90 | 1008.6 |
| 20260507034547 | 12 | 52 | 0.0 | 0.0 | 0.00 | 0.84 | 0.00 | 90 | 1008.4 |
| 20260507033047 | 13 | 52 | 0.0 | 0.0 | 0.00 | 0.84 | 0.00 | 90 | 1008.4 |
| 20260507031546 | 13 | 52 | 0.0 | 0.0 | 0.00 | 0.84 | 0.00 | 91 | 1008.5 |
| 20260507030045 | 14 | 52 | 0.0 | 0.0 | 0.00 | 0.84 | 0.00 | 91 | 1008.5 |
| 20260507024544 | 13 | 52 | 0.0 | 0.0 | 0.00 | 0.84 | 0.00 | 91 | 1008.4 |
| 20260507023043 | 13 | 46 | 0.0 | 0.0 | 0.00 | 0.84 | 0.00 | 90 | 1008.3 |
| 20260507021544 | 13 | 75 | 0.0 | 0.0 | 0.00 | 0.84 | 0.00 | 90 | 1008.3 |
| 20260507020045 | 13 | 69 | 0.0 | 0.0 | 0.00 | 0.84 | 0.00 | 91 | 1008.4 |
| 20260507014550 | 13 | 69 | 0.0 | 0.0 | 0.00 | 0.84 | 0.00 | 92 | 1008.6 |
| 20260507013050 | 13 | 69 | 0.0 | 0.0 | 0.00 | 0.84 | 0.00 | 92 | 1008.6 |
| 20260507011540 | 13 | 69 | 0.0 | 0.0 | 0.00 | 0.84 | 0.00 | 92 | 1008.4 |
| 20260507010052 | 13 | 69 | 0.0 | 0.0 | 0.00 | 0.84 | 0.00 | 92 | 1008.5 |
| 20260507004539 | 12 | 80 | 0.0 | 0.0 | 0.00 | 0.84 | 0.00 | 92 | 1008.4 |
| 20260507003039 | 12 | 80 | 0.0 | 0.0 | 0.00 | 0.84 | 0.00 | 92 | 1008.3 |
| 20260507001538 | 12 | 80 | 0.0 | 0.0 | 0.00 | 0.84 | 0.00 | 91 | 1008.3 |
| 20260507000036 | 12 | 80 | 0.0 | 0.0 | 0.00 | 0.84 | 0.00 | 91 | 1008.3 |
| 20260506234537 | 13 | 80 | 0.0 | 0.0 | 0.00 | 0.84 | 0.00 | 90 | 1008.3 |
| 20260506233053 | 13 | 80 | 0.0 | 0.0 | 0.00 | 0.84 | 0.00 | 90 | 1008.4 |
| 20260506231536 | 13 | 80 | 0.0 | 0.0 | 0.00 | 0.84 | 0.00 | 89 | 1008.5 |
| 20260506230030 | 13 | 80 | 0.0 | 0.0 | 0.00 | 0.84 | 0.00 | 89 | 1008.4 |
| 20260506224530 | 13 | 80 | 0.0 | 0.0 | 0.00 | 0.84 | 0.00 | 89 | 1008.2 |
| 20260506223028 | 13 | 80 | 0.0 | 0.0 | 0.00 | 0.84 | 0.00 | 89 | 1008.3 |
| 20260506221526 | 13 | 80 | 0.0 | 0.0 | 0.00 | 0.84 | 0.00 | 89 | 1008.4 |
| 20260506220028 | 14 | 80 | 0.0 | 0.0 | 0.00 | 0.84 | 0.84 | 88 | 1008.3 |
| 20260506214517 | 14 | 80 | 0.0 | 0.0 | 0.00 | 0.84 | 0.84 | 88 | 1008.4 |
| 20260506213013 | 14 | 80 | 0.0 | 0.0 | 0.00 | 0.84 | 0.84 | 88 | 1008.3 |
| 20260506211513 | 15 | 80 | 0.0 | 0.0 | 0.00 | 0.84 | 0.84 | 88 | 1008.3 |
| 20260506210011 | 15 | 80 | 0.0 | 0.0 | 0.00 | 0.84 | 0.84 | 88 | 1008.3 |
| 20260506204601 | 15 | 80 | 0.0 | 0.0 | 0.00 | 0.84 | 0.84 | 88 | 1008.2 |
| 20260506203056 | 14 | 80 | 0.0 | 0.0 | 0.00 | 0.84 | 0.84 | 88 | 1008.2 |
| 20260506201552 | 15 | 80 | 0.0 | 0.0 | 0.00 | 0.84 | 0.84 | 87 | 1008.1 |
| 20260506200049 | 15 | 80 | 0.0 | 0.0 | 0.00 | 0.84 | 0.84 | 87 | 1008.0 |
| 20260506194548 | 15 | 80 | 0.0 | 0.0 | 0.00 | 0.84 | 0.84 | 87 | 1007.8 |
| 20260506193038 | 15 | 82 | 0.0 | 0.0 | 0.00 | 0.84 | 0.84 | 88 | 1007.7 |
| 20260506191534 | 15 | 84 | 0.0 | 0.0 | 0.00 | 0.84 | 0.84 | 88 | 1007.7 |
| 20260506190030 | 15 | 83 | 0.0 | 0.0 | 0.00 | 0.86 | 0.84 | 87 | 1007.6 |
| 20260506184526 | 15 | 83 | 0.0 | 0.0 | 0.00 | 0.86 | 0.84 | 87 | 1007.3 |
| 20260506183021 | 15 | 82 | 0.0 | 0.0 | 0.00 | 0.86 | 0.84 | 87 | 1007.4 |
| 20260506181519 | 15 | 82 | 0.0 | 0.0 | 0.00 | 0.86 | 0.84 | 87 | 1007.3 |
| 20260506180017 | 15 | 69 | 0.0 | 0.0 | 0.00 | 0.91 | 0.84 | 87 | 1007.2 |
| 20260506174509 | 16 | 69 | 0.0 | 0.0 | 0.00 | 0.91 | 0.84 | 87 | 1007.1 |
| 20260506173004 | 15 | 73 | 0.0 | 0.0 | 0.00 | 0.91 | 0.84 | 86 | 1007.1 |
| 20260506171610 | 16 | 76 | 0.0 | 4.8 | 0.00 | 0.91 | 0.84 | 86 | 1007.0 |
| 20260506164610 | 16 | 74 | 0.0 | 0.0 | 0.00 | 0.97 | 0.84 | 87 | 1006.9 |
| 20260506163047 | 16 | 61 | 0.0 | 1.6 | 0.00 | 0.97 | 0.84 | 86 | 1007.0 |
| 20260506161542 | 16 | 80 | 0.0 | 1.6 | 0.00 | 0.97 | 0.84 | 87 | 1007.1 |
| 20260506160046 | 16 | 71 | 0.0 | 0.0 | 0.00 | 1.07 | 0.84 | 87 | 1007.0 |
| 20260506154542 | 17 | 75 | 0.0 | 0.0 | 0.00 | 1.07 | 0.84 | 86 | 1006.9 |
| 20260506153030 | 17 | 86 | 0.0 | 0.0 | 0.03 | 1.07 | 0.84 | 88 | 1007.0 |
| 20260506151525 | 16 | 67 | 0.0 | 1.6 | 0.18 | 1.07 | 0.84 | 91 | 1007.1 |
| 20260506150020 | 16 | 55 | 0.0 | 0.0 | 0.23 | 1.17 | 0.84 | 91 | 1007.2 |
| 20260506144516 | 15 | 60 | 0.0 | 0.0 | 0.33 | 1.17 | 0.84 | 92 | 1007.1 |
| 20260506143011 | 15 | 43 | 0.0 | 0.0 | 0.46 | 1.12 | 0.79 | 90 | 1006.9 |
| 20260506141507 | 15 | 252 | 0.0 | 0.0 | 0.33 | 0.99 | 0.66 | 90 | 1007.7 |
| 20260506140002 | 16 | 192 | 0.0 | 0.0 | 0.33 | 0.91 | 0.61 | 90 | 1007.6 |
| 20260506134558 | 16 | 169 | 0.0 | 0.0 | 0.25 | 0.84 | 0.51 | 89 | 1007.5 |
| 20260506133103 | 16 | 96 | 0.0 | 0.0 | 0.08 | 0.66 | 0.33 | 87 | 1007.6 |
| 20260506131554 | 16 | 83 | 0.0 | 0.0 | 0.05 | 0.64 | 0.33 | 84 | 1007.7 |
| 20260506130047 | 17 | 73 | 0.0 | 0.0 | 0.00 | 0.61 | 0.25 | 81 | 1007.8 |
| 20260506124545 | 17 | 98 | 0.0 | 0.0 | 0.00 | 0.61 | 0.25 | 81 | 1007.9 |
| 20260506123046 | 17 | 109 | 0.0 | 0.0 | 0.00 | 0.61 | 0.25 | 82 | 1008.0 |
| 20260506121551 | 16 | 181 | 0.0 | 0.0 | 0.00 | 0.61 | 0.25 | 84 | 1008.0 |
| 20260506120106 | 16 | 183 | 0.0 | 0.0 | 0.00 | 0.61 | 0.25 | 84 | 1008.1 |
| 20260506114544 | 16 | 186 | 0.0 | 0.0 | 0.03 | 0.61 | 0.25 | 84 | 1008.2 |
| 20260506113036 | 16 | 177 | 0.0 | 0.0 | 0.03 | 0.61 | 0.25 | 83 | 1008.3 |
| 20260506111533 | 16 | 122 | 0.0 | 0.0 | 0.03 | 0.61 | 0.25 | 87 | 1008.3 |
| 20260506110028 | 16 | 213 | 0.0 | 3.2 | 0.03 | 0.71 | 0.25 | 87 | 1008.5 |